Regional Weather Roundup
Issued by NWS

Home | Current Version | Previous Version | Text Only | Print | Product List | Glossary Off
Versions: 1 2 3 4 5 6 7 8 9 10 11 12 13 14 15 16 17 18 19 20 21 22 23 24 25 26 27 28 29 30 31 32 33 34 35 36 37 38 39 40 41 42 43 44 45 46 47 48 49 50

344
ASUS45 KBOU 010107
RWRCO

WEATHER ROUNDUP FOR COLORADO
NATIONAL WEATHER SERVICE DENVER/BOULDER CO
700 PM MDT SAT APR 30 2016

NOTE: "FAIR" INDICATES FEW OR NO CLOUDS BELOW 12000 FEET WITH NO
SIGNIFICANT WEATHER AND/OR OBSTRUCTIONS TO VISIBILITY.

COZ001>005-013-030-031-010200-
...NORTHWEST COLORADO...

CITY           SKY/WX    TMP DP  RH WIND       PRES   REMARKS
CRAIG          PTSUNNY   45  23  42 E14       30.01R
HAYDEN         FAIR      39  19  45 E15       30.02R
MEEKER         FAIR      45  29  53 N8        29.97R
MOUNT WERNER   NOT AVBL
STEAMBOAT SPGS CLOUDY    37  20  50 E9G23     30.02R
WALDEN         FAIR      30  19  64 NE13      30.10R WCI  20
$$

COZ006>008-011-010200-
...WEST CENTRAL VALLEYS...

CITY           SKY/WX    TMP DP  RH WIND       PRES   REMARKS
GRAND JUNCTION CLOUDY    52  33  48 N10       29.89R
MONTROSE       FAIR      53  27  36 NW15      29.90R
EAGLE          CLOUDY    43  36  75 SW5       29.99R
RIFLE          FAIR      50  32  50 CALM      29.92S
DELTA          NOT AVBL
NUCLA          NOT AVBL
$$

COZ017>023-064>068-010200-
...SOUTHWEST COLORADO...

CITY           SKY/WX    TMP DP  RH WIND       PRES   REMARKS
DURANGO        FAIR      45  34  65 N13       29.88R
CORTEZ         CLOUDY    50  36  58 S8        29.87R
PAGOSA SPRINGS PTSUNNY   44  31  62 NE7       29.92R
TELLURIDE      FAIR      42  29  61 W9G16     29.94R
WOLF CREEK PAS LGT SNOW  25  23  93 S15       30.03R WCI  12
$$

COZ009-010-012-014-032>034-037-058>063-010200-
...CENTRAL COLORADO...

CITY           SKY/WX    TMP DP  RH WIND       PRES   REMARKS
ASPEN          LGT RAIN  39  28  64 CALM      29.94R
BUENA VISTA    LGT SNOW  30  28  92 SE5       30.03R VSB 3/4 WCI  25
COPPER MTN     NOT AVBL
BERTHOUD PASS  SNOW      12   1  62 E9G25     30.04R VSB<1/4 WCI   0
COTTONWOOD PAS SNOW      28  27  93 E6        30.03R VSB 1/2 WCI  22
GUNNISON       FAIR      46  27  46 N12       29.91R
KREMMLING      CLOUDY    34  28  80 E6        30.05R WCI  29
LEADVILLE      LGT SNOW  28  25  88 VRB3      29.98R FOG
SALIDA         CLOUDY    33  32  94 E7        30.09R WCI  27
SUNLIGHT       FOG      N/A N/A N/A NE6       30.04S VSB 1/4
WILKERSON PASS CLOUDY   N/A N/A N/A E13G22    30.05R HAZE
$$

COZ069>075-010200-
...SAN LUIS VALLEY/SANGRE DE CRISTO MOUNTAINS...

CITY           SKY/WX    TMP DP  RH WIND       PRES   REMARKS
ALAMOSA        MOCLDY    40  32  73 E13       29.90R
LA VETA PASS   FOG       21  19  93 MISG      30.01R VSB 1/4
SAGUACHE       FAIR      45  30  57 SE8       29.90R
$$

COZ035-036-038>040-010200-
...NORTHERN COLORADO FRONT RANGE...

CITY           SKY/WX    TMP DP  RH WIND       PRES   REMARKS
DENVER INTL AP LGT SNOW  34  30  85 N20       30.10R WCI  23
DMNS CITY PARK   N/A     35  33  89 N5G18     30.12R WCI  31
AURORA         FLURRIES  33  33 100 N14       30.11R WCI  23
FRONT RANGE AP LGT SNOW  32  32 100 NW18G25   30.10R WCI  20
ERIE MUNI ARPT CLOUDY    37  34  87 N8        30.12R
BOULDER MUN AP CLOUDY    37  32  81 N7        30.12R
CENTENNIAL     LGT SNOW  33  32  96 N14       30.10R VSB 1   WCI  23
BROOMFIELD     LGT SNOW  36  32  87 N12       30.12R
FORT COLLINS   FAIR      36  34  93 NW10      30.13R
LONGMONT       CLOUDY    40  33  77 N9        30.14R HAZE
$$

COZ041-046-047-076>085-087-088-010200-
...PIKES PEAK/PALMER DIVIDE AND SOUTHERN FOOTHILLS...

CITY           SKY/WX    TMP DP  RH WIND       PRES   REMARKS
COLO. SPRINGS  FLURRIES  35  26  69 N21       30.06R WCI  24
A. F. ACADEMY  LGT SNOW  32  28  86 N23G29    30.04S FOG     WCI  19
SCHRIEVER AFB  NOT AVBL
ELLICOTT       NOT AVBL
FALCON         CLOUDY    31  27  86 N17G25    30.04R WCI  19
FORT CARSON    CLOUDY    37  27  66 N25G39    30.03R
LIMON          LGT SNOW  31  30  96 N31G38    30.02R FOG     WCI  16
MONUMENT HILL  CLOUDY    28  27  93 N24       30.07R FOG     WCI  14
TRINIDAD       LGT SNOW  33  31  92 NW3       30.06R VSB 3/4
$$

COZ042>045-048>051-090-091-010200-
...NORTHEAST COLORADO...

CITY           SKY/WX    TMP DP  RH WIND       PRES   REMARKS
GREELEY ARPT   CLOUDY    37  34  87 N17G25    30.12R
AKRON          SNOW      32  31  96 N26       30.03R VSB 1/2 WCI  18
BURLINGTON     CLOUDY    35  32  88 NW21G28   29.97R WCI  24
WRAY           NOT AVBL
STERLING       RAIN      34  34 100 N17       30.04R WCI  23
HOLYOKE        NOT AVBL
FORT MORGAN    LGT RAIN  35  33  92 N16G23    30.09R WCI  25
$$

COZ086-089-092>099-010200-
...SOUTHEAST COLORADO...

CITY           SKY/WX    TMP DP  RH WIND       PRES   REMARKS
PUEBLO         CLOUDY    45  28  51 N23G33    30.04R
LA JUNTA       CLOUDY    43  31  62 N23G30    30.05R
LAMAR          FAIR      43  31  62 NW21G31   29.99R
SPRINGFIELD      N/A     42  31  64 NW25G33   29.98R
$$




USA.gov is the U.S. government's official web portal to all federal, state and local government web resources and services.